Location: Bouchavesnes-Bergen
(49.9859°N, 2.9203°E)
Time: 05:12:29
(UTC+00:00)

ISS - Pass Details

Date: 09 March 2021
Orbit: 418 x 422 km, 51.6° (Epoch: 12 April)

Event Time Altitude Azimuth Distance (km) Brightness Sun altitude
Exits shadow 03:57:49 46° 112° (ESE) 575 -2.9 -22.5°
Drops below altitude 10° 04:00:16 10° 109° (ESE) 1,497 -0.3 -22.1°
Sets 04:02:22 0° 109° (ESE) 2,359 0.8 -21.8°
